Regional Weather Roundup
Issued by NWS

Home | Current Version | Previous Version | Text Only | Print | Product List | Glossary On
Versions: 1 2 3 4 5 6 7 8 9 10 11 12 13 14 15 16 17 18 19 20 21 22 23 24 25 26 27 28 29 30 31 32 33 34 35 36 37 38 39 40 41 42 43 44 45 46 47 48 49 50
000
ASUS43 KTOP 160859
RWRKS

WEATHER ROUNDUP FOR KANSAS
NATIONAL WEATHER SERVICE GOODLAND KS
400 AM CDT TUE SEP 16 2014

NOTE:  "FAIR" INDICATES FEW OR NO CLOUDS BELOW 12,000 FEET WITH NO
SIGNIFICANT WEATHER AND/OR OBSTRUCTIONS TO VISIBILITY.

KSZ001>006-013>018-027>032-041>047-161000-
NORTHWEST KANSAS

CITY           SKY/WX    TMP DP  RH WIND       PRES   REMARKS
GOODLAND       CLOUDY    57  54  89 S10       30.23F
HAYS           CLEAR     48  43  81 E6        30.24F
HILL CITY      CLEAR     45  41  86 CALM      30.25F
RUSSELL        CLEAR     48  45  89 E6        30.23F
$$

KSZ061>065-074>080-084>089-161000-
SOUTHWEST KANSAS

CITY           SKY/WX    TMP DP  RH WIND       PRES   REMARKS
DODGE CITY     PTCLDY    54  52  93 CALM      30.25F
ELKHART          N/A     58  54  87 SW3         N/A
GARDEN CITY    CLOUDY    60  56  86 CALM      30.24F
GREAT BEND     CLEAR     54  46  76 NE5       30.24F
LIBERAL        CLOUDY    61  54  77 CALM      30.27F
$$

KSZ066>073-081>083-090>101-161000-
SOUTHEAST KANSAS

CITY           SKY/WX    TMP DP  RH WIND       PRES   REMARKS
CHANUTE        CLOUDY    60  50  69 NE10      30.21F
COFFEYVILLE    CLOUDY    63  60  90 NE12      30.18S
HUTCHINSON     CLEAR     58  50  75 VRB3      30.23F
NEWTON         PTCLDY    55  46  71 E8        30.24S
PARSONS        CLOUDY    61  56  83 N7        30.21S
WICHITA INTL   MOCLDY    62  51  67 NE9       30.21S
WICHITA JABRA  CLOUDY    59  50  72 NE10      30.21F
WINFIELD       CLOUDY    63  55  75 NE12      30.20F
$$

KSZ007>012-019>026-033>040-048>060-102>105-161000-
NORTHEAST KANSAS

CITY           SKY/WX    TMP DP  RH WIND       PRES   REMARKS
CONCORDIA      CLEAR     45  44  97 E3        30.26S
EMPORIA        CLOUDY    52  50  93 NE7       30.24S
LAWRENCE       CLEAR     49  46  90 CALM      30.26S
MANHATTAN      CLEAR     48  46  93 CALM      30.26S
OLATHE IND     CLEAR     48  47  96 N3        30.25S
OLATHE EXE     CLEAR     50  49  96 N5        30.24S
SALINA         CLEAR     53  48  83 E7        30.25F
TOPEKA BILLARD CLEAR     48  47  96 N3        30.26F
TOPEKA FORBES  CLEAR     49  46  90 CALM      30.25F
$$


USA.gov is the U.S. government's official web portal to all federal, state and local government web resources and services.